| time (UTC) | temp C | wind direction | speed KPH | gust KPH | rain 1hr cm | rain 24hr cm | rain mn cm | humidity % | barometer mb |
| 20260506102949 | 14 | 18 | 6.4 | 14.5 | 0.00 | 0.00 | 0.00 | 81 | 1011.6 |
| 20260506101447 | 14 | 44 | 4.8 | 8.0 | 0.00 | 0.00 | 0.00 | 82 | 1011.3 |
| 20260506095951 | 14 | 359 | 3.2 | 9.7 | 0.00 | 0.00 | 0.00 | 82 | 1011.1 |
| 20260506094447 | 14 | 9 | 4.8 | 11.3 | 0.00 | 0.00 | 0.00 | 82 | 1010.8 |
| 20260506092950 | 14 | 60 | 6.4 | 16.1 | 0.00 | 0.00 | 0.00 | 82 | 1010.8 |
| 20260506091447 | 15 | 46 | 3.2 | 11.3 | 0.00 | 0.00 | 0.00 | 83 | 1010.6 |
| 20260506085952 | 15 | 49 | 8.0 | 14.5 | 0.00 | 0.00 | 0.00 | 83 | 1010.8 |
| 20260506084447 | 15 | 49 | 6.4 | 12.9 | 0.00 | 0.00 | 0.00 | 83 | 1010.8 |
| 20260506082949 | 15 | 58 | 6.4 | 12.9 | 0.00 | 0.00 | 0.00 | 84 | 1010.5 |
| 20260506081447 | 15 | 25 | 4.8 | 11.3 | 0.00 | 0.00 | 0.00 | 83 | 1010.4 |
| 20260506072950 | 15 | 358 | 4.8 | 11.3 | 0.00 | 0.00 | 0.00 | 83 | 1010.2 |
| 20260506071447 | 15 | 49 | 0.0 | 11.3 | 0.00 | 0.00 | 0.00 | 84 | 1010.1 |
| 20260506061447 | 16 | 39 | 4.8 | 16.1 | 0.00 | 0.00 | 0.00 | 81 | 1009.9 |
| 20260506044447 | 17 | 4 | 4.8 | 14.5 | 0.00 | 0.00 | 0.00 | 77 | 1009.9 |
| 20260506042951 | 18 | 7 | 4.8 | 11.3 | 0.00 | 0.00 | 0.00 | 76 | 1009.8 |
| 20260506041447 | 18 | 30 | 8.0 | 14.5 | 0.00 | 0.00 | 0.00 | 75 | 1009.8 |
| 20260506035952 | 18 | 7 | 8.0 | 16.1 | 0.00 | 0.00 | 0.00 | 75 | 1009.9 |
| 20260506034447 | 18 | 3 | 8.0 | 16.1 | 0.00 | 0.00 | 0.00 | 74 | 1009.9 |
| 20260506032950 | 19 | 34 | 9.7 | 20.9 | 0.00 | 0.00 | 0.00 | 73 | 1009.5 |
| 20260506031447 | 19 | 25 | 8.0 | 16.1 | 0.00 | 0.00 | 0.00 | 73 | 1008.9 |
| 20260506025953 | 20 | 47 | 9.7 | 19.3 | 0.00 | 0.00 | 0.00 | 72 | 1008.4 |
| 20260506024447 | 20 | 46 | 6.4 | 14.5 | 0.00 | 0.00 | 0.00 | 72 | 1008.1 |
| 20260506022950 | 21 | 85 | 8.0 | 17.7 | 0.00 | 0.00 | 0.00 | 72 | 1007.7 |
| 20260506021448 | 21 | 40 | 11.3 | 19.3 | 0.00 | 0.00 | 0.00 | 71 | 1007.3 |
| 20260506015952 | 21 | 58 | 9.7 | 16.1 | 0.00 | 0.00 | 0.00 | 70 | 1007.3 |
| 20260506014447 | 21 | 16 | 8.0 | 17.7 | 0.00 | 0.00 | 0.00 | 70 | 1006.9 |
| 20260506011448 | 22 | 16 | 4.8 | 11.3 | 0.00 | 0.00 | 0.00 | 68 | 1006.2 |
| 20260506002950 | 24 | 68 | 11.3 | 19.3 | 0.00 | 0.00 | 0.00 | 65 | 1005.4 |
| 20260506001447 | 25 | 46 | 11.3 | 19.3 | 0.00 | 0.00 | 0.00 | 63 | 1005.4 |
| 20260505235952 | 26 | 41 | 11.3 | 19.3 | 0.00 | 0.00 | 0.00 | 61 | 1005.3 |
| 20260505234447 | 28 | 65 | 9.7 | 20.9 | 0.00 | 0.00 | 0.00 | 60 | 1004.9 |
| 20260505225955 | 33 | 295 | 1.6 | 9.7 | 0.00 | 0.00 | 0.00 | 45 | 1003.8 |
| 20260505222950 | 33 | 275 | 1.6 | 8.0 | 0.00 | 0.00 | 0.00 | 46 | 1003.8 |
| 20260505221448 | 33 | 281 | 3.2 | 12.9 | 0.00 | 0.00 | 0.00 | 42 | 1003.8 |
| 20260505215952 | 33 | 204 | 0.0 | 9.7 | 0.00 | 0.00 | 0.00 | 45 | 1003.7 |
| 20260505212950 | 33 | 283 | 0.0 | 6.4 | 0.00 | 0.00 | 0.00 | 43 | 1003.9 |
| 20260505211447 | 33 | 266 | 3.2 | 8.0 | 0.00 | 0.00 | 0.00 | 44 | 1004.1 |
| 20260505205953 | 32 | 252 | 3.2 | 9.7 | 0.00 | 0.00 | 0.00 | 46 | 1004.3 |
| 20260505204447 | 33 | 187 | 1.6 | 8.0 | 0.00 | 0.00 | 0.00 | 47 | 1004.6 |
| 20260505202950 | 32 | 322 | 3.2 | 17.7 | 0.00 | 0.00 | 0.00 | 50 | 1004.8 |
| 20260505201447 | 32 | 236 | 6.4 | 16.1 | 0.00 | 0.00 | 0.00 | 48 | 1004.8 |
| 20260505195953 | 32 | 307 | 4.8 | 14.5 | 0.00 | 0.00 | 0.00 | 48 | 1005.0 |
| 20260505194448 | 31 | 294 | 6.4 | 14.5 | 0.00 | 0.00 | 0.00 | 49 | 1005.2 |
| 20260505192949 | 31 | 255 | 6.4 | 12.9 | 0.00 | 0.00 | 0.00 | 51 | 1005.2 |
| 20260505185954 | 30 | 264 | 8.0 | 16.1 | 0.00 | 0.00 | 0.00 | 51 | 1005.3 |
| 20260505184447 | 30 | 262 | 9.7 | 17.7 | 0.00 | 0.00 | 0.00 | 55 | 1005.5 |
| 20260505182951 | 30 | 271 | 4.8 | 17.7 | 0.00 | 0.00 | 0.00 | 57 | 1005.8 |
| 20260505174449 | 28 | 256 | 8.0 | 17.7 | 0.00 | 0.00 | 0.00 | 65 | 1005.9 |
| 20260505172951 | 28 | 316 | 11.3 | 20.9 | 0.00 | 0.00 | 0.00 | 64 | 1006.1 |
| 20260505171448 | 28 | 189 | 4.8 | 12.9 | 0.00 | 0.00 | 0.00 | 67 | 1006.1 |
| 20260505165953 | 27 | 170 | 6.4 | 17.7 | 0.00 | 0.00 | 0.00 | 69 | 1006.1 |
| 20260505164447 | 27 | 205 | 4.8 | 16.1 | 0.00 | 0.00 | 0.00 | 68 | 1005.8 |
| 20260505162950 | 26 | 218 | 4.8 | 16.1 | 0.00 | 0.00 | 0.00 | 70 | 1005.9 |
| 20260505161448 | 26 | 208 | 6.4 | 20.9 | 0.00 | 0.00 | 0.00 | 71 | 1005.7 |
| 20260505152950 | 26 | 243 | 6.4 | 19.3 | 0.00 | 0.00 | 0.00 | 74 | 1005.8 |
| 20260505151448 | 26 | 318 | 4.8 | 12.9 | 0.00 | 0.00 | 0.00 | 76 | 1006.1 |
| 20260505124449 | 21 | 195 | 3.2 | 16.1 | 0.00 | 0.00 | 0.00 | 89 | 1005.9 |
| 20260505122950 | 21 | 203 | 6.4 | 16.1 | 0.00 | 0.00 | 0.00 | 89 | 1005.5 |
| 20260505121449 | 20 | 271 | 4.8 | 17.7 | 0.00 | 0.00 | 0.00 | 90 | 1005.3 |
| 20260505115953 | 20 | 149 | 4.8 | 16.1 | 0.00 | 0.00 | 0.00 | 90 | 1005.0 |
| 20260505114448 | 20 | 155 | 4.8 | 16.1 | 0.00 | 0.00 | 0.00 | 90 | 1004.8 |
| 20260505112951 | 20 | 163 | 4.8 | 17.7 | 0.00 | 0.00 | 0.00 | 90 | 1004.6 |
| 20260505111448 | 20 | 166 | 4.8 | 20.9 | 0.00 | 0.00 | 0.00 | 90 | 1004.7 |